OPS 4682 DEB, 17666

Orbit data source: Space-Track

OPS 4682 DEB, 17666 is space debris in LEO originally from a launch on Sat, 03 Apr 1965 UTC launched from the Air Force Western Test Range (AFWTR). Debris objects in space refer to the collection of defunct objects orbiting the Earth. Examples of debris include non-operational satellites, rocket bodies, and fragments generated from explosions, collisions, or faulty payload assembly.

Loading next visibility...
Identifier
17666, 1965-027V
Orbit
LEO
Country
Flag of USUS
Related business
Manufacturer
Unknown
Mission
Spacecraft
Bus & Motor
Unknown
Mass
Unknown
Launch date (UTC)
1965-04-03 (61 years ago)
Launch vehicle
Unknown
Launch site
Air Force Western Test Range (AFWTR)
Object type
Payload
Rocket body
Debris
Shape & HBR
Unknown shape, 0.1 m
Radar Cross Section
Medium (>0.1 m² and <1 m²)

Expand to show TLE details & history
Last TLE update: 15 hours ago

TLE from 15 hours ago
0 OPS 4682 DEB
1 17666U 65027V   26263.07722750  .00002048  00000-0  70013-2 0  9992
2 17666  90.2528  14.1678 0042803 195.6928 216.9098 12.97469636962115
Epoch: 2026-09-20T01:51Z
TLE epoch observation values (Epoch: 2026-09-20T01:51:12.455Z)
Latitude
52.39976°
Longitude
-12.93731°
Altitude
1,306.811 km
Speed
7.196 km/s
True Right ascension
00h 55m 21s
True Declination
52° 14' 43"
Sunlit
Object was in full shadow at epoch
Visualization orbit readout
Latitude
Unknown
Longitude
Unknown
Altitude
Unknown
Speed
Unknown
Apparent Right ascension
Unknown
Apparent Declination
Unknown
Sunlit
N/A
Visualization observer readout
Local Sidereal Time
09:47:43
Azimuth
Unknown
Elevation
Unknown
Doppler factor
Unknown
Orbital elements
Apogee altitude
1,301.88 km
Perigee altitude
1,236.415 km
Semi-major axis
7,647.285 km
Eccentricity
0.00428
Inclination
90.2528°
RAAN
14.1678°
Arg. of periapsis
195.6928°
True anomaly
216.61649°
Mean anomaly
216.9098°
Eccentric anomaly
216.76302°
Mean motion
3.24551 °/min
Orbital period
110.92 mins
BSTAR
0.0070013
Loading maneuver chart data...
Computing Atmospheric mass density...
Loading historical data...
Loading historical data...
Loading historical data...
Loading historical data...
Loading historical data...
Loading historical data...
Loading historical data...

Documentation

Showing up to 5 results
|